date,time,water_lv
2016-07-01,00:00:00,202.26
2016-07-01,00:10:00,202.27
2016-07-01,00:20:00,202.28
2016-07-01,00:30:00,202.29
2016-07-01,00:40:00,202.3
2016-07-01,00:50:00,202.3
2016-07-01,01:00:00,202.31
2016-07-01,01:10:00,202.32
2016-07-01,01:20:00,202.32
2016-07-01,01:30:00,202.33
2016-07-01,01:40:00,202.33
2016-07-01,01:50:00,202.34
2016-07-01,02:00:00,202.34
2016-07-01,02:10:00,202.35
2016-07-01,02:20:00,202.35
2016-07-01,02:30:00,202.35
2016-07-01,02:40:00,202.36
2016-07-01,02:50:00,202.36
2016-07-01,03:00:00,202.37
2016-07-01,03:10:00,202.37
2016-07-01,03:20:00,202.37
2016-07-01,03:30:00,202.37
2016-07-01,03:40:00,202.37
2016-07-01,03:50:00,202.37
2016-07-01,04:00:00,202.37
2016-07-01,04:10:00,202.37
2016-07-01,04:20:00,202.37
2016-07-01,04:30:00,202.37
2016-07-01,04:40:00,202.37
2016-07-01,04:50:00,202.37
2016-07-01,05:00:00,202.37
2016-07-01,05:10:00,202.37
2016-07-01,05:20:00,202.37
2016-07-01,05:30:00,202.36
2016-07-01,05:40:00,202.36
2016-07-01,05:50:00,202.36
2016-07-01,06:00:00,202.36
2016-07-01,06:10:00,202.35
2016-07-01,06:20:00,202.35
2016-07-01,06:30:00,202.35
2016-07-01,06:40:00,202.34
2016-07-01,06:50:00,202.34
2016-07-01,07:00:00,202.34
2016-07-01,07:10:00,202.33
2016-07-01,07:20:00,202.33
2016-07-01,07:30:00,202.32
2016-07-01,07:40:00,202.32
2016-07-01,07:50:00,202.31
2016-07-01,08:00:00,202.31
2016-07-01,08:10:00,202.3
2016-07-01,08:20:00,202.3
2016-07-01,08:30:00,202.29
2016-07-01,08:40:00,202.29
2016-07-01,08:50:00,202.28
2016-07-01,09:00:00,202.28
2016-07-01,09:10:00,202.27
2016-07-01,09:20:00,202.27
2016-07-01,09:30:00,202.26
2016-07-01,09:40:00,202.26
2016-07-01,09:50:00,202.25
2016-07-01,10:00:00,202.24
2016-07-01,10:10:00,202.24
2016-07-01,10:20:00,202.24
2016-07-01,10:30:00,202.22
2016-07-01,10:40:00,202.22
2016-07-01,10:50:00,202.21
2016-07-01,11:00:00,202.2
2016-07-01,11:10:00,202.2
2016-07-01,11:20:00,202.19
2016-07-01,11:30:00,202.18
2016-07-01,11:40:00,202.18
2016-07-01,11:50:00,202.17
2016-07-01,12:00:00,202.16
2016-07-01,12:10:00,202.15
2016-07-01,12:20:00,202.14
2016-07-01,12:30:00,202.14
2016-07-01,12:40:00,202.13
2016-07-01,12:50:00,202.12
2016-07-01,13:00:00,202.12
2016-07-01,13:10:00,202.11
2016-07-01,13:20:00,202.09
2016-07-01,13:30:00,202.09
2016-07-01,13:40:00,202.08
2016-07-01,13:50:00,202.08
2016-07-01,14:00:00,202.07
2016-07-01,14:10:00,202.07
2016-07-01,14:20:00,202.05
2016-07-01,14:30:00,202.04
2016-07-01,14:40:00,202.04
2016-07-01,14:50:00,202.04
2016-07-01,15:00:00,202.03
2016-07-01,15:10:00,202.02
2016-07-01,15:20:00,202.01
2016-07-01,15:30:00,202
2016-07-01,15:40:00,202
2016-07-01,15:50:00,201.99
2016-07-01,16:00:00,201.99
2016-07-01,16:10:00,201.98
2016-07-01,16:20:00,201.98
2016-07-01,16:30:00,201.97
2016-07-01,16:40:00,201.96
2016-07-01,16:50:00,201.96
2016-07-01,17:00:00,201.95
2016-07-01,17:10:00,201.95
2016-07-01,17:20:00,201.94
2016-07-01,17:30:00,201.93
2016-07-01,17:40:00,201.93
2016-07-01,17:50:00,201.92
2016-07-01,18:00:00,201.92
2016-07-01,18:10:00,201.91
2016-07-01,18:20:00,201.91
2016-07-01,18:30:00,201.9
2016-07-01,18:40:00,201.9
2016-07-01,18:50:00,201.89
2016-07-01,19:00:00,201.88
2016-07-01,19:10:00,201.88
2016-07-01,19:20:00,201.87
2016-07-01,19:30:00,201.87
2016-07-01,19:40:00,201.87
2016-07-01,19:50:00,201.86
2016-07-01,20:00:00,201.85
2016-07-01,20:10:00,201.85
2016-07-01,20:20:00,201.84
2016-07-01,20:30:00,201.84
2016-07-01,20:40:00,201.83
2016-07-01,20:50:00,201.83
2016-07-01,21:00:00,201.82
2016-07-01,21:10:00,201.82
2016-07-01,21:20:00,201.81
2016-07-01,21:30:00,201.81
2016-07-01,21:40:00,201.8
2016-07-01,21:50:00,201.8
2016-07-01,22:00:00,201.79
2016-07-01,22:10:00,201.79
2016-07-01,22:20:00,201.78
2016-07-01,22:30:00,201.78
2016-07-01,22:40:00,201.77
2016-07-01,22:50:00,201.77
2016-07-01,23:00:00,201.76
2016-07-01,23:10:00,201.76
2016-07-01,23:20:00,201.75
2016-07-01,23:30:00,201.75
2016-07-01,23:40:00,201.74
2016-07-01,23:50:00,201.74
2016-07-02,00:00:00,201.74
2016-07-02,00:10:00,201.73
2016-07-02,00:20:00,201.72
2016-07-02,00:30:00,201.72
2016-07-02,00:40:00,201.71
2016-07-02,00:50:00,201.71
2016-07-02,01:00:00,201.71
2016-07-02,01:10:00,201.7
2016-07-02,01:20:00,201.7
2016-07-02,01:30:00,201.69
2016-07-02,01:40:00,201.69
2016-07-02,01:50:00,201.68
2016-07-02,02:00:00,201.68
2016-07-02,02:10:00,201.68
2016-07-02,02:20:00,201.67
2016-07-02,02:30:00,201.67
2016-07-02,02:40:00,201.66
2016-07-02,02:50:00,201.66
2016-07-02,03:00:00,201.66
2016-07-02,03:10:00,201.65
2016-07-02,03:20:00,201.65
2016-07-02,03:30:00,201.65
2016-07-02,03:40:00,201.64
2016-07-02,03:50:00,201.64
2016-07-02,04:00:00,201.63
2016-07-02,04:10:00,201.63
2016-07-02,04:20:00,201.63
2016-07-02,04:30:00,201.62
2016-07-02,04:40:00,201.62
2016-07-02,04:50:00,201.62
2016-07-02,05:00:00,201.62
2016-07-02,05:10:00,201.61
2016-07-02,05:20:00,201.61
2016-07-02,05:30:00,201.61
2016-07-02,05:40:00,201.6
2016-07-02,05:50:00,201.6
2016-07-02,06:00:00,201.6
2016-07-02,06:10:00,201.6
2016-07-02,06:20:00,201.59
2016-07-02,06:30:00,201.59
2016-07-02,06:40:00,201.59
2016-07-02,06:50:00,201.59
2016-07-02,07:00:00,201.59
2016-07-02,07:10:00,201.59
2016-07-02,07:20:00,201.59
2016-07-02,07:30:00,201.59
2016-07-02,07:40:00,201.59
2016-07-02,07:50:00,201.59
2016-07-02,08:00:00,201.59
2016-07-02,08:10:00,201.58
2016-07-02,08:20:00,201.59
2016-07-02,08:30:00,201.6
2016-07-02,08:40:00,201.6
2016-07-02,08:50:00,201.61
2016-07-02,09:00:00,201.61
2016-07-02,09:10:00,201.62
2016-07-02,09:20:00,201.63
2016-07-02,09:30:00,201.63
2016-07-02,09:40:00,201.64
2016-07-02,09:50:00,201.65
2016-07-02,10:00:00,201.66
2016-07-02,10:10:00,201.68
2016-07-02,10:20:00,201.7
2016-07-02,10:30:00,201.71
2016-07-02,10:40:00,201.73
2016-07-02,10:50:00,201.74
2016-07-02,11:00:00,201.76
2016-07-02,11:10:00,201.79
2016-07-02,11:20:00,201.81
2016-07-02,11:30:00,201.84
2016-07-02,11:40:00,201.86
2016-07-02,11:50:00,201.89
2016-07-02,12:00:00,201.91
2016-07-02,12:10:00,201.94
2016-07-02,12:20:00,201.97
2016-07-02,12:30:00,201.99
2016-07-02,12:40:00,202.03
2016-07-02,12:50:00,202.05
2016-07-02,13:00:00,202.08
2016-07-02,13:10:00,202.12
2016-07-02,13:20:00,202.15
2016-07-02,13:30:00,202.18
2016-07-02,13:40:00,202.21
2016-07-02,13:50:00,202.24
2016-07-02,14:00:00,202.27
2016-07-02,14:10:00,202.3
2016-07-02,14:20:00,202.33
2016-07-02,14:30:00,202.35
2016-07-02,14:40:00,202.38
2016-07-02,14:50:00,202.41
2016-07-02,15:00:00,202.43
2016-07-02,15:10:00,202.46
2016-07-02,15:20:00,202.49
2016-07-02,15:30:00,202.51
2016-07-02,15:40:00,202.54
2016-07-02,15:50:00,202.56
2016-07-02,16:00:00,202.58
2016-07-02,16:10:00,202.6
2016-07-02,16:20:00,202.62
2016-07-02,16:30:00,202.64
2016-07-02,16:40:00,202.66
2016-07-02,16:50:00,202.68
2016-07-02,17:00:00,202.7
2016-07-02,17:10:00,202.72
2016-07-02,17:20:00,202.74
2016-07-02,17:30:00,202.76
2016-07-02,17:40:00,202.77
2016-07-02,17:50:00,202.79
2016-07-02,18:00:00,202.81
2016-07-02,18:10:00,202.82
2016-07-02,18:20:00,202.84
2016-07-02,18:30:00,202.85
2016-07-02,18:40:00,202.87
2016-07-02,18:50:00,202.88
2016-07-02,19:00:00,202.9
2016-07-02,19:10:00,202.91
2016-07-02,19:20:00,202.93
2016-07-02,19:30:00,202.94
2016-07-02,19:40:00,202.95
2016-07-02,19:50:00,202.97
2016-07-02,20:00:00,202.98
2016-07-02,20:10:00,202.99
2016-07-02,20:20:00,203.01
2016-07-02,20:30:00,203.01
2016-07-02,20:40:00,203.03
2016-07-02,20:50:00,203.04
2016-07-02,21:00:00,203.05
2016-07-02,21:10:00,203.06
2016-07-02,21:20:00,203.07
2016-07-02,21:30:00,203.08
2016-07-02,21:40:00,203.08
2016-07-02,21:50:00,203.1
2016-07-02,22:00:00,203.11
2016-07-02,22:10:00,203.12
2016-07-02,22:20:00,203.13
2016-07-02,22:30:00,203.15
2016-07-02,22:40:00,203.15
2016-07-02,22:50:00,203.17
2016-07-02,23:00:00,203.18
2016-07-02,23:10:00,203.18
2016-07-02,23:20:00,203.19
2016-07-02,23:30:00,203.2
2016-07-02,23:40:00,203.21
2016-07-02,23:50:00,203.22
2016-07-03,00:00:00,203.23
2016-07-03,00:10:00,203.24
2016-07-03,00:20:00,203.24
2016-07-03,00:30:00,203.25
2016-07-03,00:40:00,203.26
2016-07-03,00:50:00,203.26
2016-07-03,01:00:00,203.27
2016-07-03,01:10:00,203.28
2016-07-03,01:20:00,203.29
2016-07-03,01:30:00,203.29
2016-07-03,01:40:00,203.3
2016-07-03,01:50:00,203.3
2016-07-03,02:00:00,203.31
2016-07-03,02:10:00,203.31
2016-07-03,02:20:00,203.32
2016-07-03,02:30:00,203.32
2016-07-03,02:40:00,203.33
2016-07-03,02:50:00,203.33
2016-07-03,03:00:00,203.33
2016-07-03,03:10:00,203.34
2016-07-03,03:20:00,203.34
2016-07-03,03:30:00,203.35
2016-07-03,03:40:00,203.35
2016-07-03,03:50:00,203.36
2016-07-03,04:00:00,203.36
2016-07-03,04:10:00,203.36
2016-07-03,04:20:00,203.36
2016-07-03,04:30:00,203.37
2016-07-03,04:40:00,203.37
2016-07-03,04:50:00,203.37
2016-07-03,05:00:00,203.37
2016-07-03,05:10:00,203.38
2016-07-03,05:20:00,203.38
2016-07-03,05:30:00,203.39
2016-07-03,05:40:00,203.38
2016-07-03,05:50:00,203.39
2016-07-03,06:00:00,203.39
2016-07-03,06:10:00,203.39
2016-07-03,06:20:00,203.39
2016-07-03,06:30:00,203.39
2016-07-03,06:40:00,203.4
2016-07-03,06:50:00,203.4
2016-07-03,07:00:00,203.4
2016-07-03,07:10:00,203.4
2016-07-03,07:20:00,203.4
2016-07-03,07:30:00,203.4
2016-07-03,07:40:00,203.4
2016-07-03,07:50:00,203.4
2016-07-03,08:00:00,203.4
2016-07-03,08:10:00,203.4
2016-07-03,08:20:00,203.4
2016-07-03,08:30:00,203.4
2016-07-03,08:40:00,203.4
2016-07-03,08:50:00,203.4
2016-07-03,09:00:00,203.4
2016-07-03,09:10:00,203.4
2016-07-03,09:20:00,203.4
2016-07-03,09:30:00,203.4
2016-07-03,09:40:00,203.4
2016-07-03,09:50:00,203.4
2016-07-03,10:00:00,203.4
2016-07-03,10:10:00,203.4
2016-07-03,10:20:00,-
2016-07-03,10:30:00,203.4
2016-07-03,10:40:00,203.39
2016-07-03,10:50:00,203.4
2016-07-03,11:00:00,-
2016-07-03,11:10:00,-
2016-07-03,11:20:00,-
2016-07-03,11:30:00,203.39
2016-07-03,11:40:00,203.38
2016-07-03,11:50:00,203.39
2016-07-03,12:00:00,203.38
2016-07-03,12:10:00,203.38
2016-07-03,12:20:00,203.38
2016-07-03,12:30:00,203.37
2016-07-03,12:40:00,203.38
2016-07-03,12:50:00,203.37
2016-07-03,13:00:00,203.37
2016-07-03,13:10:00,203.36
2016-07-03,13:20:00,203.36
2016-07-03,13:30:00,203.35
2016-07-03,13:40:00,203.35
2016-07-03,13:50:00,203.35
2016-07-03,14:00:00,203.35
2016-07-03,14:10:00,203.35
2016-07-03,14:20:00,203.34
2016-07-03,14:30:00,203.33
2016-07-03,14:40:00,203.33
2016-07-03,14:50:00,203.33
2016-07-03,15:00:00,203.32
2016-07-03,15:10:00,203.32
2016-07-03,15:20:00,203.32
2016-07-03,15:30:00,203.31
2016-07-03,15:40:00,203.31
2016-07-03,15:50:00,203.3
2016-07-03,16:00:00,203.3
2016-07-03,16:10:00,203.29
2016-07-03,16:20:00,203.29
2016-07-03,16:30:00,203.28
2016-07-03,16:40:00,203.29
2016-07-03,16:50:00,203.28
2016-07-03,17:00:00,203.27
2016-07-03,17:10:00,203.27
2016-07-03,17:20:00,203.26
2016-07-03,17:30:00,203.26
2016-07-03,17:40:00,203.25
2016-07-03,17:50:00,203.25
2016-07-03,18:00:00,203.25
2016-07-03,18:10:00,203.24
2016-07-03,18:20:00,203.24
2016-07-03,18:30:00,203.23
2016-07-03,18:40:00,203.23
2016-07-03,18:50:00,203.22
2016-07-03,19:00:00,203.22
2016-07-03,19:10:00,203.22
2016-07-03,19:20:00,203.21
2016-07-03,19:30:00,203.21
2016-07-03,19:40:00,203.2
2016-07-03,19:50:00,203.2
2016-07-03,20:00:00,203.19
2016-07-03,20:10:00,203.19
2016-07-03,20:20:00,203.18
2016-07-03,20:30:00,203.18
2016-07-03,20:40:00,203.18
2016-07-03,20:50:00,203.17
2016-07-03,21:00:00,203.16
2016-07-03,21:10:00,203.16
2016-07-03,21:20:00,203.15
2016-07-03,21:30:00,203.15
2016-07-03,21:40:00,203.14
2016-07-03,21:50:00,203.14
2016-07-03,22:00:00,203.13
2016-07-03,22:10:00,203.13
2016-07-03,22:20:00,203.12
2016-07-03,22:30:00,203.12
2016-07-03,22:40:00,203.12
2016-07-03,22:50:00,203.11
2016-07-03,23:00:00,203.11
2016-07-03,23:10:00,203.1
2016-07-03,23:20:00,203.1
2016-07-03,23:30:00,203.1
2016-07-03,23:40:00,203.09
2016-07-03,23:50:00,203.08
2016-07-04,00:00:00,203.08
2016-07-04,00:10:00,203.08
2016-07-04,00:20:00,203.07
2016-07-04,00:30:00,203.06
2016-07-04,00:40:00,203.06
2016-07-04,00:50:00,203.06
2016-07-04,01:00:00,203.05
2016-07-04,01:10:00,203.05
2016-07-04,01:20:00,203.05
2016-07-04,01:30:00,203.04
2016-07-04,01:40:00,203.04
2016-07-04,01:50:00,203.04
2016-07-04,02:00:00,203.03
2016-07-04,02:10:00,203.03
2016-07-04,02:20:00,203.03
2016-07-04,02:30:00,203.02
2016-07-04,02:40:00,203.02
2016-07-04,02:50:00,203.02
2016-07-04,03:00:00,203.01
2016-07-04,03:10:00,203.01
2016-07-04,03:20:00,203.01
2016-07-04,03:30:00,203
2016-07-04,03:40:00,203
2016-07-04,03:50:00,203
2016-07-04,04:00:00,203
2016-07-04,04:10:00,202.99
2016-07-04,04:20:00,202.99
2016-07-04,04:30:00,202.99
2016-07-04,04:40:00,202.99
2016-07-04,04:50:00,202.98
2016-07-04,05:00:00,202.98
2016-07-04,05:10:00,202.98
2016-07-04,05:20:00,202.98
2016-07-04,05:30:00,202.98
2016-07-04,05:40:00,202.98
2016-07-04,05:50:00,202.97
2016-07-04,06:00:00,202.97
2016-07-04,06:10:00,202.97
2016-07-04,06:20:00,202.97
2016-07-04,06:30:00,202.97
2016-07-04,06:40:00,202.97
2016-07-04,06:50:00,202.97
2016-07-04,07:00:00,202.97
2016-07-04,07:10:00,202.97
2016-07-04,07:20:00,202.97
2016-07-04,07:30:00,202.97
2016-07-04,07:40:00,202.97
2016-07-04,07:50:00,202.97
2016-07-04,08:00:00,202.97
2016-07-04,08:10:00,202.97
2016-07-04,08:20:00,202.97
2016-07-04,08:30:00,202.97
2016-07-04,08:40:00,202.97
2016-07-04,08:50:00,202.98
2016-07-04,09:00:00,202.98
2016-07-04,09:10:00,202.98
2016-07-04,09:20:00,202.98
2016-07-04,09:30:00,202.98
2016-07-04,09:40:00,202.99
2016-07-04,09:50:00,202.99
2016-07-04,10:00:00,202.99
2016-07-04,10:10:00,202.99
2016-07-04,10:20:00,202.99
2016-07-04,10:30:00,202.99
2016-07-04,10:40:00,203
2016-07-04,10:50:00,203
2016-07-04,11:00:00,203
2016-07-04,11:10:00,203.01
2016-07-04,11:20:00,203.01
2016-07-04,11:30:00,203.01
2016-07-04,11:40:00,203.01
2016-07-04,11:50:00,203.02
2016-07-04,12:00:00,203.02
2016-07-04,12:10:00,203.02
2016-07-04,12:20:00,203.03
2016-07-04,12:30:00,203.03
2016-07-04,12:40:00,203.03
2016-07-04,12:50:00,203.04
2016-07-04,13:00:00,203.04
2016-07-04,13:10:00,203.04
2016-07-04,13:20:00,203.04
2016-07-04,13:30:00,203.05
2016-07-04,13:40:00,203.04
2016-07-04,13:50:00,203.05
2016-07-04,14:00:00,203.05
2016-07-04,14:10:00,203.05
2016-07-04,14:20:00,203.05
2016-07-04,14:30:00,203.05
2016-07-04,14:40:00,203.05
2016-07-04,14:50:00,203.05
2016-07-04,15:00:00,203.05
2016-07-04,15:10:00,203.05
2016-07-04,15:20:00,203.05
2016-07-04,15:30:00,203.05
2016-07-04,15:40:00,203.05
2016-07-04,15:50:00,203.05
2016-07-04,16:00:00,203.05
2016-07-04,16:10:00,203.05
2016-07-04,16:20:00,203.05
2016-07-04,16:30:00,203.05
2016-07-04,16:40:00,203.05
2016-07-04,16:50:00,203.05
2016-07-04,17:00:00,203.04
2016-07-04,17:10:00,203.04
2016-07-04,17:20:00,203.04
2016-07-04,17:30:00,203.04
2016-07-04,17:40:00,203.04
2016-07-04,17:50:00,203.03
2016-07-04,18:00:00,203.03
2016-07-04,18:10:00,203.03
2016-07-04,18:20:00,203.03
2016-07-04,18:30:00,203.02
2016-07-04,18:40:00,203.02
2016-07-04,18:50:00,203.02
2016-07-04,19:00:00,203.01
2016-07-04,19:10:00,203.01
2016-07-04,19:20:00,203.01
2016-07-04,19:30:00,203
2016-07-04,19:40:00,203
2016-07-04,19:50:00,203
2016-07-04,20:00:00,202.99
2016-07-04,20:10:00,202.99
2016-07-04,20:20:00,202.98
2016-07-04,20:30:00,202.98
2016-07-04,20:40:00,202.97
2016-07-04,20:50:00,202.97
2016-07-04,21:00:00,202.97
2016-07-04,21:10:00,202.96
2016-07-04,21:20:00,202.96
2016-07-04,21:30:00,202.95
2016-07-04,21:40:00,202.95
2016-07-04,21:50:00,202.95
2016-07-04,22:00:00,202.94
2016-07-04,22:10:00,202.94
2016-07-04,22:20:00,202.93
2016-07-04,22:30:00,202.93
2016-07-04,22:40:00,202.93
2016-07-04,22:50:00,202.92
2016-07-04,23:00:00,202.92
2016-07-04,23:10:00,202.92
2016-07-04,23:20:00,202.91
2016-07-04,23:30:00,202.91
2016-07-04,23:40:00,202.91
2016-07-04,23:50:00,202.9
2016-07-05,00:00:00,202.9
2016-07-05,00:10:00,202.9
2016-07-05,00:20:00,202.89
2016-07-05,00:30:00,202.89
2016-07-05,00:40:00,202.89
2016-07-05,00:50:00,202.88
2016-07-05,01:00:00,202.88
2016-07-05,01:10:00,202.88
2016-07-05,01:20:00,202.88
2016-07-05,01:30:00,202.88
2016-07-05,01:40:00,202.87
2016-07-05,01:50:00,202.87
2016-07-05,02:00:00,202.87
2016-07-05,02:10:00,202.87
2016-07-05,02:20:00,202.86
2016-07-05,02:30:00,202.86
2016-07-05,02:40:00,202.86
2016-07-05,02:50:00,202.86
2016-07-05,03:00:00,202.85
2016-07-05,03:10:00,202.85
2016-07-05,03:20:00,202.85
2016-07-05,03:30:00,202.85
2016-07-05,03:40:00,202.85
2016-07-05,03:50:00,202.85
2016-07-05,04:00:00,202.84
2016-07-05,04:10:00,202.84
2016-07-05,04:20:00,202.84
2016-07-05,04:30:00,202.84
2016-07-05,04:40:00,202.84
2016-07-05,04:50:00,202.84
2016-07-05,05:00:00,202.84
2016-07-05,05:10:00,202.83
2016-07-05,05:20:00,202.83
2016-07-05,05:30:00,202.83
2016-07-05,05:40:00,202.83
2016-07-05,05:50:00,202.83
2016-07-05,06:00:00,202.83
2016-07-05,06:10:00,202.82
2016-07-05,06:20:00,202.82
2016-07-05,06:30:00,202.82
2016-07-05,06:40:00,202.82
2016-07-05,06:50:00,202.82
2016-07-05,07:00:00,202.81
2016-07-05,07:10:00,202.81
2016-07-05,07:20:00,202.81
2016-07-05,07:30:00,202.81
2016-07-05,07:40:00,202.8
2016-07-05,07:50:00,202.8
2016-07-05,08:00:00,202.8
2016-07-05,08:10:00,202.79
2016-07-05,08:20:00,202.79
2016-07-05,08:30:00,202.79
2016-07-05,08:40:00,202.79
2016-07-05,08:50:00,202.78
2016-07-05,09:00:00,202.78
2016-07-05,09:10:00,202.78
2016-07-05,09:20:00,202.77
2016-07-05,09:30:00,202.77
2016-07-05,09:40:00,202.77
2016-07-05,09:50:00,202.76
2016-07-05,10:00:00,202.76
2016-07-05,10:10:00,202.76
2016-07-05,10:20:00,202.75
2016-07-05,10:30:00,202.75
2016-07-05,10:40:00,202.75
2016-07-05,10:50:00,202.74
2016-07-05,11:00:00,202.74
2016-07-05,11:10:00,202.73
2016-07-05,11:20:00,202.73
2016-07-05,11:30:00,202.72
2016-07-05,11:40:00,202.72
2016-07-05,11:50:00,202.72
2016-07-05,12:00:00,202.71
2016-07-05,12:10:00,202.71
2016-07-05,12:20:00,202.7
2016-07-05,12:30:00,202.7
2016-07-05,12:40:00,202.69
2016-07-05,12:50:00,202.69
2016-07-05,13:00:00,202.68
2016-07-05,13:10:00,202.68
2016-07-05,13:20:00,202.67
2016-07-05,13:30:00,202.67
2016-07-05,13:40:00,202.66
2016-07-05,13:50:00,202.66
2016-07-05,14:00:00,202.65
2016-07-05,14:10:00,202.65
2016-07-05,14:20:00,202.65
2016-07-05,14:30:00,202.64
2016-07-05,14:40:00,202.6
2016-07-05,14:50:00,202.63
2016-07-05,15:00:00,202.63
2016-07-05,15:10:00,202.62
2016-07-05,15:20:00,202.61
2016-07-05,15:30:00,202.61
2016-07-05,15:40:00,202.6
2016-07-05,15:50:00,202.59
2016-07-05,16:00:00,202.59
2016-07-05,16:10:00,202.58
2016-07-05,16:20:00,202.58
2016-07-05,16:30:00,202.57
2016-07-05,16:40:00,202.57
2016-07-05,16:50:00,202.56
2016-07-05,17:00:00,202.55
2016-07-05,17:10:00,202.55
2016-07-05,17:20:00,202.54
2016-07-05,17:30:00,202.54
2016-07-05,17:40:00,202.53
2016-07-05,17:50:00,202.53
2016-07-05,18:00:00,202.52
2016-07-05,18:10:00,202.51
2016-07-05,18:20:00,202.51
2016-07-05,18:30:00,202.5
2016-07-05,18:40:00,202.5
2016-07-05,18:50:00,202.49
2016-07-05,19:00:00,202.48
2016-07-05,19:10:00,202.48
2016-07-05,19:20:00,202.47
2016-07-05,19:30:00,202.47
2016-07-05,19:40:00,202.46
2016-07-05,19:50:00,202.45
2016-07-05,20:00:00,202.45
2016-07-05,20:10:00,202.44
2016-07-05,20:20:00,202.44
2016-07-05,20:30:00,202.43
2016-07-05,20:40:00,202.43
2016-07-05,20:50:00,202.42
2016-07-05,21:00:00,202.41
2016-07-05,21:10:00,202.41
2016-07-05,21:20:00,202.4
2016-07-05,21:30:00,202.4
2016-07-05,21:40:00,202.39
2016-07-05,21:50:00,202.39
2016-07-05,22:00:00,202.38
2016-07-05,22:10:00,202.38
2016-07-05,22:20:00,202.37
2016-07-05,22:30:00,202.36
2016-07-05,22:40:00,202.36
2016-07-05,22:50:00,202.36
2016-07-05,23:00:00,202.35
2016-07-05,23:10:00,202.34
2016-07-05,23:20:00,202.34
2016-07-05,23:30:00,202.33
2016-07-05,23:40:00,202.33
2016-07-05,23:50:00,202.32
2016-07-06,00:00:00,202.32
2016-07-06,00:10:00,202.31
2016-07-06,00:20:00,202.31
2016-07-06,00:30:00,202.3
2016-07-06,00:40:00,202.3
2016-07-06,00:50:00,202.29
2016-07-06,01:00:00,202.29
2016-07-06,01:10:00,202.28
2016-07-06,01:20:00,202.28
2016-07-06,01:30:00,202.27
2016-07-06,01:40:00,202.27
2016-07-06,01:50:00,202.26
2016-07-06,02:00:00,202.26
2016-07-06,02:10:00,202.25
2016-07-06,02:20:00,202.25
2016-07-06,02:30:00,202.24
2016-07-06,02:40:00,202.23
2016-07-06,02:50:00,202.23
2016-07-06,03:00:00,202.23
2016-07-06,03:10:00,202.22
2016-07-06,03:20:00,202.22
2016-07-06,03:30:00,202.21
2016-07-06,03:40:00,202.21
2016-07-06,03:50:00,202.2
2016-07-06,04:00:00,202.2
2016-07-06,04:10:00,202.19
2016-07-06,04:20:00,202.19
2016-07-06,04:30:00,202.18
2016-07-06,04:40:00,202.18
2016-07-06,04:50:00,202.17
2016-07-06,05:00:00,202.17
2016-07-06,05:10:00,202.16
2016-07-06,05:20:00,202.16
2016-07-06,05:30:00,202.16
2016-07-06,05:40:00,202.15
2016-07-06,05:50:00,202.15
2016-07-06,06:00:00,202.14
2016-07-06,06:10:00,202.14
2016-07-06,06:20:00,202.13
2016-07-06,06:30:00,202.13
2016-07-06,06:40:00,202.12
2016-07-06,06:50:00,202.12
2016-07-06,07:00:00,202.12
2016-07-06,07:10:00,202.11
2016-07-06,07:20:00,202.11
2016-07-06,07:30:00,202.1
2016-07-06,07:40:00,202.1
2016-07-06,07:50:00,202.1
2016-07-06,08:00:00,202.09
2016-07-06,08:10:00,202.09
2016-07-06,08:20:00,202.09
2016-07-06,08:30:00,202.08
2016-07-06,08:40:00,202.07
2016-07-06,08:50:00,202.07
2016-07-06,09:00:00,202.07
2016-07-06,09:10:00,202.06
2016-07-06,09:20:00,202.06
2016-07-06,09:30:00,202.05
2016-07-06,09:40:00,202.05
2016-07-06,09:50:00,202.05
2016-07-06,10:00:00,202.04
2016-07-06,10:10:00,202.04
2016-07-06,10:20:00,202.03
2016-07-06,10:30:00,202.03
2016-07-06,10:40:00,202.03
2016-07-06,10:50:00,202.02
2016-07-06,11:00:00,202.02
2016-07-06,11:10:00,202.02
2016-07-06,11:20:00,202.01
2016-07-06,11:30:00,202.01
2016-07-06,11:40:00,202.01
2016-07-06,11:50:00,202
2016-07-06,12:00:00,202
2016-07-06,12:10:00,202
2016-07-06,12:20:00,201.99
2016-07-06,12:30:00,201.99
2016-07-06,12:40:00,201.99
2016-07-06,12:50:00,201.98
2016-07-06,13:00:00,201.98
2016-07-06,13:10:00,201.98
2016-07-06,13:20:00,201.97
2016-07-06,13:30:00,201.97
2016-07-06,13:40:00,201.97
2016-07-06,13:50:00,201.97
2016-07-06,14:00:00,201.96
2016-07-06,14:10:00,201.97
2016-07-06,14:20:00,-
2016-07-06,14:30:00,-
2016-07-06,14:40:00,-
2016-07-06,14:50:00,-
2016-07-06,15:00:00,-
2016-07-06,15:10:00,-
2016-07-06,15:20:00,201.96
2016-07-06,15:30:00,201.97
2016-07-06,15:40:00,201.97
2016-07-06,15:50:00,201.97
2016-07-06,16:00:00,201.97
2016-07-06,16:10:00,201.97
2016-07-06,16:20:00,201.97
2016-07-06,16:30:00,201.97
2016-07-06,16:40:00,201.97
2016-07-06,16:50:00,201.97
2016-07-06,17:00:00,201.97
2016-07-06,17:10:00,201.98
2016-07-06,17:20:00,201.98
2016-07-06,17:30:00,201.98
2016-07-06,17:40:00,201.98
2016-07-06,17:50:00,201.98
2016-07-06,18:00:00,201.98
2016-07-06,18:10:00,201.99
2016-07-06,18:20:00,201.99
2016-07-06,18:30:00,201.99
2016-07-06,18:40:00,201.99
2016-07-06,18:50:00,201.99
2016-07-06,19:00:00,201.99
2016-07-06,19:10:00,201.99
2016-07-06,19:20:00,201.99
2016-07-06,19:30:00,201.99
2016-07-06,19:40:00,201.99
2016-07-06,19:50:00,202
2016-07-06,20:00:00,202
2016-07-06,20:10:00,202
2016-07-06,20:20:00,202
2016-07-06,20:30:00,202
2016-07-06,20:40:00,202
2016-07-06,20:50:00,202
2016-07-06,21:00:00,202
2016-07-06,21:10:00,202
2016-07-06,21:20:00,202.01
2016-07-06,21:30:00,202.01
2016-07-06,21:40:00,202.01
2016-07-06,21:50:00,202.01
2016-07-06,22:00:00,202.01
2016-07-06,22:10:00,202.01
2016-07-06,22:20:00,202.01
2016-07-06,22:30:00,202.01
2016-07-06,22:40:00,202.01
2016-07-06,22:50:00,202.01
2016-07-06,23:00:00,202.01
2016-07-06,23:10:00,202.01
2016-07-06,23:20:00,202.02
2016-07-06,23:30:00,202.02
2016-07-06,23:40:00,202.02
2016-07-06,23:50:00,202.02
2016-07-07,00:00:00,202.02
2016-07-07,00:10:00,202.03
2016-07-07,00:20:00,202.03
2016-07-07,00:30:00,202.03
2016-07-07,00:40:00,202.03
2016-07-07,00:50:00,202.03
2016-07-07,01:00:00,202.03
2016-07-07,01:10:00,202.03
2016-07-07,01:20:00,202.03
2016-07-07,01:30:00,202.03
2016-07-07,01:40:00,202.03
2016-07-07,01:50:00,202.03
2016-07-07,02:00:00,202.03
2016-07-07,02:10:00,202.03
2016-07-07,02:20:00,202.03
2016-07-07,02:30:00,202.03
2016-07-07,02:40:00,202.03
2016-07-07,02:50:00,202.03
2016-07-07,03:00:00,202.03
2016-07-07,03:10:00,202.03
2016-07-07,03:20:00,202.03
2016-07-07,03:30:00,202.03
2016-07-07,03:40:00,202.03
2016-07-07,03:50:00,202.03
2016-07-07,04:00:00,202.03
2016-07-07,04:10:00,202.03
2016-07-07,04:20:00,202.03
2016-07-07,04:30:00,202.04
2016-07-07,04:40:00,202.03
2016-07-07,04:50:00,202.03
2016-07-07,05:00:00,202.03